Hourly Data Report for September 06, 2017

All times are specified in Local Standard Time (LST). Add 1 hour to adjust for Daylight Saving Time where and when it is observed.

SUMMERSIDE
PRINCE EDWARD ISLAND

46°26'28.000" N
63°50'17.000" W
12.20 m
8300596
71702
WSD

Download Data

Hourly Data (September 2017)
Hourly Data Report for September 6, 2017
Temp Definition
°C
Dew Point Temp Definition
°C
Rel Hum Definition
%
Wind Dir Definition
10's deg

Wind Spd Definition
km/h
Visibility Definition
km
Stn Press Definition
kPa
Hmdx Definition


Wind Chill Definition


Weather Definition


TIME
00:00 19.4 17.3 87 20 18   101.04     LegendNANA
01:00 19.5 17.2 86 20 25   101.03     LegendNANA
02:00 19.5 17.0 86 20 31   101.07     LegendNANA
03:00 18.7 16.8 89 19 25   101.07     LegendNANA
04:00 18.6 16.6 88 19 29   101.05     LegendNANA
05:00 18.7 16.6 88 20 25   101.10     LegendNANA
06:00 18.7 16.8 89 21 24   101.16     LegendNANA
07:00 19.2 17.2 88 22 19   101.26     LegendNANA
08:00 20.5 17.7 84 23 23   101.30 26   LegendNANA
09:00 21.9 18.2 79 22 31   101.36 28   LegendNANA
10:00 22.3 18.7 80 22 25   101.41 29   LegendNANA
11:00 22.1 18.8 82 23 20   101.47 29   LegendNANA
12:00 24.2 19.4 75 22 18   101.46 31   LegendNANA
13:00 23.9 19.2 75 20 15   101.46 31   LegendNANA
14:00 25.2 19.0 68 19 22   101.41 32   LegendNANA
15:00 25.0 18.4 67 19 20   101.37 31   LegendNANA
16:00 23.9 18.6 72 18 13   101.35 30   LegendNANA
17:00 21.4 20.0 92 23 4   101.37 29   LegendNANA
18:00 20.9 19.5 92 25 13   101.46 28   LegendNANA
19:00 19.7 18.8 95 18 10   101.48     LegendNANA
20:00 19.3 18.4 95 22 6   101.53     LegendNANA
21:00 19.1 18.2 94 23 5   101.51     LegendNANA
22:00 19.4 18.4 94 17 11   101.50     LegendNANA
23:00 19.9 18.7 92 19 16   101.52     LegendNANA

Notes on Data Quality.

Legend

  • E = Estimated
  • M = Missing
  • NA = Not Available
  • ‡ = Partner data that is not subject to review by the National Climate Archives
Date modified: